Regional Weather Roundup
Issued by NWS

Home | Current Version | Previous Version | Text Only | Print | Product List | Glossary Off
Versions: 1 2 3 4 5 6 7 8 9 10 11 12 13 14 15 16 17 18 19 20 21 22 23 24 25 26 27 28 29 30 31 32 33 34 35 36 37 38 39 40 41 42 43 44 45 46 47 48 49 50

000
ASUS43 KIND 171709
RWRIN

WEATHER ROUNDUP FOR INDIANA
NATIONAL WEATHER SERVICE INDIANAPOLIS IN
1200 PM EST WED JAN 17 2018

NOTE: "FAIR" INDICATES FEW OR NO CLOUDS BELOW 12,000 FEET WITH NO
SIGNIFICANT WEATHER AND/OR OBSTRUCTIONS TO VISIBILITY.

* - STATION DOES NOT REPORT WEATHER SUCH AS PRECIPITATION OR FOG.

+ - STATION NOT QUALITY CONTROLLED BY THE NATIONAL WEATHER SERVICE.
    USE DATA WITH CAUTION...ESPECIALLY DEWPOINT AND RELATIVE
    HUMIDITY OBSERVATIONS.

INZ001>003-010>013-019-020-171800-
NORTHWEST INDIANA

CITY           SKY/WX    TMP DP  RH WIND       PRES   REMARKS
GARY /AIRPORT/ MOSUNNY   18   7  62 W14       30.55F WCI   4
KNOX *+        FAIR       9   5  85 W5        30.55S WCI   0
LA PORTE +     FAIR       9   6  89 SW6       30.53S WCI  -1
MICHIGAN CITY+ FAIR      18  10  73 SW9       30.53F WCI   6
MONTICELLO +   FAIR       8   2  75 W9        30.57F WCI  -5
RENSSELAER +   FAIR      10   5  79 SW9       30.57F WCI  -2
VALPARAISO     FAIR      10   5  80 SW10      30.53F WCI  -4

$$

LMZ046-743>745-171800-
SOUTHERN LAKE MICHIGAN

STATION/POSITION TIME  TEMP    WIND        PRES    WAVE
                       AIR SEA DIR/SP/G            HT
                 (UTC) (F)     (DEG/KT/KT) (MB)    (FT)
BURNS HARBOR     1640   16     240/ 11/ 14 1034.5F
MICHIGAN CITY    1640   16     230/ 14/ 17   N/A

$$

INZ004-005-014>016-021>024-171800-
NORTH CENTRAL INDIANA

CITY           SKY/WX    TMP DP  RH WIND       PRES   REMARKS
ELKHART        FAIR      18  10  73 W12       30.50S WCI   5
GOSHEN         FAIR      15  10  80 W10       30.50F WCI   2
LOGANSPORT +   FAIR       9   3  78 SW8       30.57F WCI  -4
PERU/GRISSOM   FAIR       8   5  87 W9        30.54F WCI  -5
ROCHESTER +    FAIR      12   7  79 W9        30.54F WCI   0
SOUTH BEND     FAIR      12   6  77 SW9       30.51S WCI   0
WARSAW +       FAIR      18  10  73 W7        30.51F WCI   8

$$

INZ006>009-017-018-025>027-171800-
NORTHEAST INDIANA

CITY           SKY/WX    TMP DP  RH WIND       PRES   REMARKS
AUBURN +       FAIR      19  12  73 W8        30.49F WCI   9
FORT WAYNE     FAIR      13   8  81 SW9       30.52F WCI   1
HUNTINGTON +   FAIR      12   5  74 SW7       30.53F WCI   1
KENDALLVILLE + FAIR      17  15  90 W13       30.47F WCI   4

$$

INZ028-029-035-036-043>045-051>053-171800-
WEST CENTRAL INDIANA

CITY           SKY/WX    TMP DP  RH WIND       PRES   REMARKS
CRAWFORDSVL +  FAIR       8   3  82 MISG        N/A
GREENCASTLE +  FAIR      12   3  67 CALM      30.60F
LAFAYETTE      FAIR       8   4  83 SW7       30.60S WCI  -3
TERRE HAUTE    FAIR       9   2  73 SW3       30.64F

$$

INZ030>032-037>040-046>048-054>057-064-065-171800-
CENTRAL INDIANA

CITY           SKY/WX    TMP DP  RH WIND       PRES   REMARKS
ANDERSON       SUNNY     12   7  79 CALM      30.54R
COLUMBUS       MOSUNNY   10   3  72 CALM      30.62S
FISHERS *+     FAIR      16   9  73 CALM      30.58F
FRANKFORT +    FAIR      10   5  79 W10       30.58F WCI  -3
GREENWOOD *+   FAIR      12   5  71 W3        30.60S
INDIANAPOLIS   FAIR       9   3  77 SW6       30.59S WCI  -1
-EAGLE CREEK   FAIR      11   5  77 VRB3      30.58S
MARION +       FAIR       6   2  82 CALM      30.56S
MT COMFORT *+  FAIR      12   7  79 SW5       30.57F WCI   4
SHELBYVILLE    CLOUDY     8   2  76 SW7       30.59S WCI  -3
ZIONSVILLE +   FAIR      10   4  77 W6        30.57F WCI   0

$$

INZ033-034-041-042-049-050-058-059-171800-
EAST CENTRAL INDIANA

CITY           SKY/WX    TMP DP  RH WIND       PRES   REMARKS
MUNCIE         FAIR      12   6  77 W7        30.54F WCI   1
RICHMOND +     FLURRIES  12   7  79 W8        30.53F WCI   1

$$

INZ060-061-067>069-081>083-085>088-171800-
SOUTHWEST INDIANA

CITY           SKY/WX    TMP DP  RH WIND       PRES   REMARKS
EVANSVILLE     FAIR      12   5  73 W5        30.70S WCI   4
HUNTINGBURG +  FAIR      16   6  65 CALM      30.67F
WASHINGTON +   FAIR       8  -1  68 W6        30.68S WCI  -3

$$

INZ062-063-066-070>080-084-089>092-171800-
SOUTH CENTRAL AND SOUTHEAST INDIANA

CITY           SKY/WX    TMP DP  RH WIND       PRES   REMARKS
BATESVILLE *+    N/A    N/A N/A N/A MISG        N/A
BEDFORD +      FAIR      12   3  67 SW6       30.62S WCI   3
BLOOMINGTON    FAIR      11   3  70 W5        30.61S WCI   3
FRENCH LICK *+ FAIR      12   3  67 W3        30.62F
MADISON *+     CLOUDY    14   7  73 W7        30.62S WCI   4
NORTH VERNON + LGT SNOW   9   5  85 SW6       30.61S WCI  -1
SEYMOUR +      PTSUNNY   14   5  67 CALM      30.64R

$$





USA.gov is the U.S. government's official web portal to all federal, state and local government web resources and services.